Sergeant Bluff, IA

7:49 AM CDT on September 25, 2016 (GMT -0500)
Sioux Gateway

Weather History for KSUX - December, 2011

Change the Weather History Date:

Monday, December 26, 2011

  Actual Average Record
Temperature  
Mean Temperature 36 °F 20 °F  
Max Temperature 53 °F 30 °F 56 °F (1959)
Min Temperature 19 °F 11 °F -16 °F (1951)
Degree Days  
Heating Degree Days 29 45  
Month to date heating degree days 1040 1092  
Since 1 July heating degree days 2412 2568  
Cooling Degree Days 0 0  
Month to date cooling degree days 0 0  
Year to date cooling degree days 1093 869  
Moisture  
Dew Point 23 °F    
Average Humidity 60    
Maximum Humidity 84    
Minimum Humidity 35    
Precipitation  
Precipitation 0.00 in 0.03 in 0.45 in (1911)
Month to date precipitation 0.60 0.70  
Year to date precipitation 23.95 27.64  
Snow  
Snow 0.00 in 0.20 in 5.30 in (1911)
Month to date snowfall 2.9 6.7  
Since 1 July snowfall 2.9 12.1  
Snow Depth 0.00 in    
Sea Level Pressure  
Sea Level Pressure 29.99 in    
Wind  
Wind Speed 14 mph (SW)    
Max Wind Speed 26 mph    
Max Gust Speed 33 mph    
Visibility 10 miles    
Events      
T = Trace of Precipitation, MM = Missing Value Source: NWS Daily Summary

Daily Weather History Graph

Daily Weather History Graph

Search for Another Location

Airport or City:

Trip Planner

Search our weather history database for the weather conditions in past years. The results will help you decide how hot, cold, wet, or windy it might be!

Date:

Astronomy

Dec. 26, 2011 Rise Set
Actual Time 7:53 AM CST 4:58 PM CST
Civil Twilight 7:21 AM CST 5:30 PM CST
Nautical Twilight 6:46 AM CST 6:06 PM CST
Astronomical Twilight 6:11 AM CST 6:40 PM CST
Moon 9:12 AM CST (12/26) 7:30 PM CST (12/26)
Length of Visible Light 10h 09m
Length of Day
9h 05m
Waxing Crescent, 5% of the Moon is Illuminated
Dec 26
Waxing Crescent
Jan 1
First Quarter
Jan 9
Full
Jan 16
Last Quarter
Jan 23
New

Hourly Weather History & Observations

Time (CST) Temp. Windchill Dew Point Humidity Pressure Visibility Wind Dir Wind Speed Gust Speed Precip Events Conditions
12:52 AM 30.9 °F 25.2 °F 21.0 °F 67% 30.23 in 10.0 mi SSE 5.8 mph - N/A   Clear
1:52 AM 35.1 °F 25.2 °F 23.0 °F 61% 30.18 in 10.0 mi SSW 16.1 mph - N/A   Clear
2:52 AM 35.1 °F 25.9 °F 21.9 °F 59% 30.16 in 10.0 mi SSW 13.8 mph - N/A   Clear
3:52 AM 34.0 °F 24.6 °F 21.9 °F 61% 30.13 in 10.0 mi SSW 13.8 mph - N/A   Clear
4:52 AM 34.0 °F 25.5 °F 23.0 °F 64% 30.09 in 10.0 mi South 11.5 mph - N/A   Clear
5:52 AM 37.0 °F 27.4 °F 23.0 °F 57% 30.06 in 10.0 mi South 17.3 mph - N/A   Clear
6:52 AM 35.1 °F 24.8 °F 21.9 °F 59% 30.05 in 10.0 mi South 17.3 mph - N/A   Clear
7:52 AM 35.1 °F 23.8 °F 23.0 °F 61% 30.03 in 10.0 mi South 20.7 mph 28.8 mph N/A   Clear
8:52 AM 36.0 °F 25.3 °F 24.1 °F 62% 30.02 in 10.0 mi South 19.6 mph 27.6 mph N/A   Clear
9:52 AM 37.9 °F 27.3 °F 24.1 °F 57% 30.01 in 10.0 mi SSW 21.9 mph 32.2 mph N/A   Clear
10:52 AM 42.1 °F 35.7 °F 24.1 °F 49% 30.02 in 10.0 mi SW 11.5 mph - N/A   Mostly Cloudy
11:52 AM 46.0 °F 38.8 °F 24.1 °F 42% 29.96 in 10.0 mi SSW 18.4 mph 24.2 mph N/A   Partly Cloudy
12:52 PM 48.9 °F - 24.1 °F 38% 29.90 in 10.0 mi SSW 24.2 mph - N/A   Clear
1:52 PM 52.0 °F - 25.0 °F 35% 29.89 in 10.0 mi WSW 15.0 mph 26.5 mph N/A   Mostly Cloudy
2:52 PM 51.1 °F - 24.1 °F 35% 29.88 in 10.0 mi West 12.7 mph - N/A   Mostly Cloudy
3:52 PM 51.1 °F - 25.0 °F 36% 29.86 in 10.0 mi WSW 8.1 mph - N/A   Clear
4:52 PM 43.0 °F 39.5 °F 24.1 °F 47% 29.88 in 10.0 mi WSW 5.8 mph - N/A   Clear
5:52 PM 39.0 °F 34.8 °F 19.9 °F 46% 29.90 in 10.0 mi West 5.8 mph - N/A   Clear
6:52 PM 39.9 °F 34.5 °F 21.0 °F 47% 29.92 in 10.0 mi WNW 8.1 mph - N/A   Clear
7:52 PM 37.9 °F 31.5 °F 19.0 °F 47% 29.93 in 10.0 mi West 9.2 mph - N/A   Clear
8:52 PM 39.0 °F 32.3 °F 21.0 °F 49% 29.94 in 10.0 mi NW 10.4 mph - N/A   Clear
9:52 PM 42.1 °F 34.2 °F 24.1 °F 49% 29.94 in 10.0 mi NW 16.1 mph 21.9 mph N/A   Clear
10:52 PM 42.1 °F 33.6 °F 25.0 °F 51% 29.93 in 10.0 mi NW 18.4 mph 25.3 mph N/A   Clear
11:52 PM 41.0 °F 32.8 °F 25.0 °F 53% 29.93 in 10.0 mi NW 16.1 mph - N/A   Clear